Find Starlink 31744

NORAD ID: 59494 Int'l Des: 2024-071 Owner: SPXS Country: US Constellation: starlink operational
LEOCIRCULAR

Current View

Loading 3D Globe...

About Starlink 31744

Starlink 31744 (NORAD 59494) is a starlink constellation satellite (v2 mini) launched Apr 13, 2024 by SPXS of US. It operates in LEO, CIRCULAR orbit with a mass of 730.00 kg.

Upcoming Passes

Passes for default location (London). Set your location on the main map for personalized predictions.

Altitude History

Loading altitude history...

Two-Line Element Set

1 59494U 24071L 26263.51925801 -.00005790 00000-0 -20085-3 0 9996
2 59494 43.0025 327.1126 0001360 259.2990 100.7708 15.27609249137914
Epoch: Sep 20, 2026 • Age: 25 hours

Current Status

Altitude 490.2 km
Apogee / Perigee N/A
Velocity 7.62 km/s
Sub-Earth Point -29.60°S, 82.99°E
Launch Date Apr 13, 2024
Age 2.4 years
Type internet

Technical Details

Classification Payload
Mass 730.00 kg
Dry Mass 700.00 kg
Length 0.30 m
Span 29.00 m
Shape ? Box + pan
Manufacturer SPXS
Bus Type Starlink V2M
Phase Status In Orbit
Owner/State SPXS/US

Most Searched